User: anonymous   Login
Location: Unspecified
(0.0000°N, 0.0000°E)
Time: 12:27:25
(UTC+00:00)
Language:

Picosat 9 - Orbit

View from above orbital plane
View from above orbital plane
View from above satellite
View from above satellite

Ground track
Ground track

The orbit data is extracted from the following two-line orbital elements,

1 26930U 01043B   18347.74718784 -.00000046  00000-0  14480-4 0  9999
2 26930  67.0022  81.2194 0010971 262.5379  97.4475 14.30684311898503
Epoch (UTC): 13 December 2018 17:55:57
Eccentricity: 0.0010971
inclination: 67.0022°
perigee height: 781 km
apogee height: 797 km
right ascension of ascending node: 81.2194°
argument of perigee: 262.5379°
revolutions per day: 14.30684311
mean anomaly at epoch: 97.4475°
orbit number at epoch: 89850

The dashed part of the orbit path shows where the satellite is in the earth's shadow,  

DLR